Regional Weather Roundup
Issued by NWS Charleston, WV

Home | Current Version | Previous Version | Graphics & Text | Print | Product List | Glossary On
Versions: 1 2 3 4 5 6 7 8 9 10 11 12 13 14 15 16 17 18 19 20 21 22 23 24 25 26 27 28 29 30 31 32 33 34 35 36 37 38 39 40 41 42 43 44 45 46 47 48 49 50
000
ASUS41 KRLX 031610
RWRRLX
West Virginia Regional Weather Roundup
National Weather Service Charleston WV
1200 PM EDT THU SEP 03 2015

Note: "fair" indicates few or no clouds below 12,000 feet with no
significant weather and/or obstructions to visibility.

WVZ003-031700-
Northern Panhandle of West Virginia

CITY           SKY/WX    TMP DP  RH WIND       PRES   REMARKS
WHEELING       SUNNY     81  69  67 SW5       30.02S
$$

WVZ009-031700-
Northwest West Virginia

CITY           SKY/WX    TMP DP  RH WIND       PRES   REMARKS
PARKERSBURG    PTSUNNY   73  69  87 SW7       30.06F
$$

WVZ006-031700-
Western West Virginia

CITY           SKY/WX    TMP DP  RH WIND       PRES   REMARKS
HUNTINGTON     MOSUNNY   84  69  60 VRB5      30.04S
$$

WVZ015-031700-
West Central West Virginia

CITY           SKY/WX    TMP DP  RH WIND       PRES   REMARKS
CHARLESTON     PTSUNNY   78  68  71 VRB3      30.06S
$$

WVZ022-031-031700-
North Central West Virginia

CITY           SKY/WX    TMP DP  RH WIND       PRES   REMARKS
CLARKSBURG     MOSUNNY   79  68  69 CALM      30.04F
MORGANTOWN     MOSUNNY   80  65  59 S7        30.03F
$$

WVZ025-035-042-045-031700-
Southern West Virginia

CITY           SKY/WX    TMP DP  RH WIND       PRES   REMARKS
BECKLEY        PTSUNNY   74  64  71 NE5       30.13S
LOGAN            N/A     79  68  69 VRB5      30.09S
BLUEFIELD      PTSUNNY   78  65  63 NW8       30.15S
LEWISBURG      MOSUNNY   78  68  70 CALM      30.10F
$$

WVZ047-031700-
Northern Mountains of West Virginia

CITY           SKY/WX    TMP DP  RH WIND       PRES   REMARKS
ELKINS         MOSUNNY   78  65  63 VRB7      30.08F
$$

WVZ052-031700-
Eastern Panhandle of West Virginia

CITY           SKY/WX    TMP DP  RH WIND       PRES   REMARKS
MARTINSBURG    SUNNY     87  67  51 VRB3      29.96F
PETERSBURG     MOSUNNY   84  69  61 CALM      30.00F
$$


USA.gov is the U.S. government's official web portal to all federal, state and local government web resources and services.